Total_Precipitation_Accumulation
0.06 0.11 0.17 0.21 0.19 0.15 0.11 0.09 0.13 0.21 0.39 0.50 0.62 0.71 0.75 0.74 0.70 0.68 0.69 0.67 0.61 0.60 0.66 0.77 0.92 1.03 1.15 1.21 1.40 1.48 1.69 1.87 1.93 2.01 2.02 2.02 2.12 2.12 2.04 2.06 2.07 2.21 2.25 2.26
0.05 0.08 0.12 0.15 0.18 0.13 0.10 0.09 0.10 0.20 0.43 0.54 0.60 0.65 0.75 0.72 0.72 0.71 0.68 0.70 0.75 0.78 0.79 0.81 0.87 0.97 1.07 1.14 1.35 1.58 1.87 2.16 2.20 2.25 2.23 2.32 2.46 2.52 2.41 2.37 2.45 2.47 2.39 2.32
0.08 0.11 0.12 0.17 0.17 0.15 0.17 0.16 0.19 0.29 0.44 0.53 0.60 0.68 0.88 0.87 0.81 0.81 0.82 0.84 0.91 1.02 0.99 0.95 0.97 1.00 1.10 1.22 1.41 1.70 1.98 2.23 2.37 2.43 2.47 2.56 2.67 2.68 2.62 2.66 2.80 2.82 2.70 2.50
0.13 0.18 0.24 0.22 0.22 0.22 0.25 0.28 0.32 0.41 0.46 0.60 0.81 0.91 1.07 1.11 0.98 0.94 0.88 0.85 0.92 1.09 1.13 1.10 1.11 1.17 1.30 1.49 1.75 2.02 2.21 2.35 2.45 2.48 2.50 2.56 2.63 2.54 2.57 2.70 2.75 2.78 2.70 2.54
0.24 0.27 0.28 0.32 0.35 0.37 0.42 0.55 0.55 0.64 0.73 0.84 0.94 0.93 1.01 0.95 0.85 0.85 0.86 0.91 0.99 1.11 1.23 1.33 1.37 1.44 1.52 1.67 1.88 2.10 2.26 2.30 2.28 2.37 2.48 2.54 2.56 2.58 2.60 2.62 2.50 2.39 2.33 2.31
0.38 0.41 0.45 0.49 0.52 0.48 0.56 1.03 1.07 1.06 0.99 0.95 0.99 1.20 1.17 0.95 0.86 0.90 0.97 1.03 1.11 1.13 1.18 1.32 1.44 1.46 1.57 1.75 1.97 2.16 2.31 2.33 2.30 2.41 2.52 2.57 2.63 2.67 2.59 2.49 2.43 2.35 2.21 2.20
0.55 0.60 0.58 0.55 0.52 0.54 0.91 1.25 1.19 1.17 1.19 1.11 1.18 1.25 1.22 1.10 1.08 1.03 1.05 1.15 1.15 1.19 1.21 1.27 1.38 1.48 1.61 1.73 1.86 2.00 2.17 2.30 2.45 2.62 2.68 2.69 2.70 2.62 2.53 2.43 2.45 2.43 2.30 2.20
0.74 0.93 1.01 0.72 0.61 0.88 1.18 1.05 1.18 1.31 1.29 1.28 1.24 1.16 1.18 1.19 1.17 1.14 1.09 1.17 1.21 1.24 1.37 1.44 1.50 1.54 1.63 1.64 1.73 1.91 1.97 2.10 2.18 2.32 2.41 2.43 2.52 2.47 2.50 2.45 2.36 2.28 2.16 2.04
1.02 1.16 1.00 0.84 0.88 1.01 1.06 1.15 1.21 1.34 1.42 1.37 1.39 1.30 1.18 1.19 1.15 1.31 1.37 1.36 1.37 1.31 1.36 1.42 1.51 1.60 1.68 1.67 1.64 1.71 1.82 1.96 2.08 2.14 2.30 2.39 2.45 2.41 2.33 2.26 2.13 2.00 1.91 1.83
1.25 1.31 1.17 1.09 1.05 1.01 1.03 1.13 1.20 1.34 1.43 1.50 1.45 1.27 1.18 1.13 1.09 1.09 1.15 1.16 1.27 1.26 1.30 1.45 1.43 1.47 1.59 1.66 1.65 1.71 1.80 1.83 1.92 2.01 2.13 2.34 2.39 2.25 2.09 1.94 1.86 1.83 1.80 1.81
1.45 1.49 1.29 1.21 1.16 1.20 1.18 1.16 1.18 1.28 1.34 1.40 1.33 1.24 1.22 1.16 1.08 1.05 1.02 1.01 1.05 1.10 1.15 1.21 1.23 1.26 1.36 1.48 1.54 1.53 1.52 1.50 1.54 1.70 1.86 2.02 2.06 1.98 1.81 1.71 1.80 1.83 1.79 1.77
1.64 1.45 1.47 1.49 1.39 1.37 1.46 1.44 1.39 1.42 1.52 1.50 1.33 1.23 1.17 1.06 0.98 0.94 0.88 0.84 0.91 0.97 1.00 1.04 1.08 1.17 1.27 1.47 1.61 1.62 1.54 1.44 1.43 1.43 1.50 1.69 1.90 1.97 1.83 1.62 1.66 1.61 1.55 1.49
1.48 1.38 1.48 1.53 1.56 1.62 1.74 1.67 1.58 1.59 1.61 1.50 1.37 1.22 1.11 1.03 0.92 0.85 0.79 0.79 0.86 0.97 1.05 1.16 1.12 1.06 1.09 1.27 1.44 1.55 1.52 1.47 1.40 1.36 1.40 1.52 1.75 1.97 2.02 1.80 1.58 1.46 1.31 1.18
1.42 1.47 1.69 1.71 1.75 1.77 1.75 1.75 1.71 1.72 1.62 1.52 1.41 1.23 1.12 1.13 1.08 0.98 0.90 0.95 1.04 1.14 1.21 1.24 1.21 1.14 1.10 1.17 1.29 1.38 1.41 1.40 1.28 1.25 1.32 1.45 1.67 1.94 2.11 2.04 1.83 1.55 1.27 1.08
1.62 1.61 1.65 1.61 1.70 1.71 1.73 1.78 1.71 1.77 1.72 1.63 1.45 1.28 1.14 1.08 1.07 1.06 1.06 1.17 1.33 1.34 1.29 1.26 1.28 1.21 1.10 1.08 1.16 1.24 1.32 1.34 1.29 1.25 1.27 1.31 1.54 1.84 2.04 2.09 1.98 1.77 1.42 1.13
1.81 1.69 1.54 1.53 1.72 1.71 1.70 1.71 1.62 1.66 1.72 1.64 1.49 1.35 1.30 1.27 1.21 1.16 1.19 1.32 1.58 1.62 1.47 1.37 1.37 1.31 1.18 1.12 1.09 1.10 1.16 1.17 1.07 1.05 1.10 1.13 1.23 1.45 1.72 1.90 1.87 1.77 1.52 1.11
1.76 1.83 1.76 1.71 1.78 1.79 1.72 1.61 1.55 1.61 1.68 1.69 1.64 1.53 1.49 1.48 1.46 1.46 1.51 1.56 1.67 1.69 1.48 1.34 1.29 1.21 1.10 1.12 1.16 1.12 1.10 1.09 1.00 0.90 0.95 1.02 1.11 1.31 1.58 1.77 1.74 1.64 1.47 1.14
1.53 1.55 1.57 1.65 1.78 1.83 1.70 1.53 1.48 1.48 1.54 1.62 1.63 1.59 1.61 1.66 1.71 1.79 1.81 1.73 1.63 1.49 1.31 1.19 1.14 1.07 0.99 0.93 0.91 0.90 0.91 0.94 0.90 0.87 0.94 0.99 1.03 1.22 1.49 1.64 1.58 1.49 1.41 1.24
1.41 1.41 1.44 1.47 1.57 1.59 1.50 1.47 1.42 1.31 1.25 1.32 1.39 1.44 1.50 1.56 1.64 1.80 1.77 1.77 1.77 1.61 1.31 1.10 1.11 0.99 0.94 0.89 0.87 0.82 0.78 0.79 0.78 0.79 0.84 0.91 1.03 1.21 1.36 1.42 1.41 1.40 1.27 1.14
1.51 1.47 1.46 1.53 1.53 1.45 1.35 1.28 1.31 1.24 1.24 1.29 1.22 1.21 1.28 1.34 1.44 1.64 1.69 1.77 1.76 1.59 1.32 1.13 0.96 0.87 0.79 0.74 0.75 0.77 0.82 0.87 0.87 0.90 0.93 1.03 1.14 1.24 1.28 1.26 1.22 1.20 1.18 1.18
1.43 1.42 1.35 1.46 1.42 1.29 1.20 1.11 1.17 1.15 1.18 1.17 1.08 1.07 1.09 1.11 1.19 1.40 1.70 1.90 1.67 1.36 1.17 1.09 0.90 0.76 0.68 0.68 0.67 0.66 0.74 0.83 0.90 1.01 1.07 1.13 1.19 1.23 1.24 1.21 1.14 1.11 1.12 1.16
1.32 1.29 1.27 1.29 1.28 1.22 1.05 0.99 1.04 1.06 1.04 0.95 0.88 0.93 0.96 1.03 1.12 1.25 1.43 1.67 1.65 1.52 1.17 0.95 0.82 0.74 0.71 0.71 0.66 0.69 0.74 0.75 0.83 0.91 0.96 1.04 1.15 1.25 1.24 1.17 1.09 1.08 1.11 1.16
1.38 1.22 1.20 1.23 1.26 1.18 1.03 0.96 0.97 1.04 0.96 0.89 0.89 0.92 0.92 1.00 1.08 1.32 1.45 1.34 1.36 1.48 1.20 1.03 1.03 0.92 0.77 0.70 0.70 0.71 0.73 0.78 0.89 0.94 0.94 0.98 1.00 1.05 1.09 1.06 1.07 1.06 1.10 1.07
1.39 1.26 1.17 1.12 1.14 1.13 1.11 0.99 0.91 0.98 0.93 0.83 0.82 0.79 0.83 0.93 0.97 1.04 1.20 1.27 1.28 1.31 1.12 1.05 1.03 0.90 0.75 0.68 0.75 0.81 0.89 0.97 0.97 0.93 0.87 0.88 0.88 0.87 0.91 0.89 0.88 0.93 0.97 0.98
1.38 1.27 1.16 1.08 1.11 1.09 1.03 0.95 0.91 0.95 0.87 0.84 0.85 0.83 0.80 0.84 0.96 1.05 1.09 1.10 1.22 1.26 1.13 1.06 0.95 0.89 0.79 0.73 0.83 0.97 1.01 0.92 0.85 0.81 0.79 0.79 0.83 0.85 0.83 0.87 0.91 0.88 0.87 0.88
1.36 1.27 1.20 1.10 1.06 1.02 0.95 0.93 0.97 0.97 0.89 0.90 0.92 0.86 0.80 0.84 0.91 0.97 1.04 1.04 1.07 1.17 1.10 0.96 0.80 0.79 0.84 0.87 0.88 0.93 0.90 0.83 0.78 0.77 0.76 0.78 0.84 0.89 0.87 0.91 0.92 0.89 0.88 0.90
1.30 1.26 1.23 1.16 1.09 1.02 0.99 0.98 1.01 1.07 1.03 1.01 1.01 1.00 0.99 0.99 1.01 1.06 1.05 1.03 1.00 0.97 0.91 0.81 0.73 0.71 0.74 0.80 0.79 0.79 0.78 0.78 0.74 0.75 0.77 0.81 0.86 0.89 0.84 0.83 0.82 0.81 0.80 0.80